| time (UTC) | temp F | wind direction | speed MPH | gust MPH | rain 1hr in | rain 24hr in | rain mn in | humidity % | barometer mb |
| 20260504190046 | 68 | 157 | 4.0 | 21.0 | 0.00 | 0.00 | 0.00 | 41 | 1005.7 |
| 20260504184538 | 67 | 178 | 4.0 | 14.0 | 0.00 | 0.00 | 0.00 | 43 | 1005.8 |
| 20260504183037 | 66 | 209 | 3.0 | 15.0 | 0.00 | 0.00 | 0.00 | 43 | 1005.9 |
| 20260504181542 | 66 | 133 | 1.0 | 11.0 | 0.00 | 0.00 | 0.00 | 44 | 1006.1 |
| 20260504180032 | 65 | 146 | 4.0 | 13.0 | 0.00 | 0.00 | 0.00 | 46 | 1006.0 |
| 20260504174530 | 64 | 136 | 3.0 | 15.0 | 0.00 | 0.00 | 0.00 | 45 | 1006.1 |
| 20260504173026 | 63 | 156 | 3.0 | 20.0 | 0.00 | 0.00 | 0.00 | 47 | 1006.3 |
| 20260504171524 | 62 | 197 | 5.0 | 16.0 | 0.00 | 0.00 | 0.00 | 45 | 1006.6 |
| 20260504081514 | 46 | 94 | 0.0 | 2.0 | 0.00 | 0.00 | 0.00 | 79 | 1008.7 |
| 20260504044548 | 38 | 314 | 0.0 | 2.0 | 0.00 | 0.00 | 0.00 | 83 | 1009.4 |
| 20260504043042 | 37 | 314 | 0.0 | 0.0 | 0.00 | 0.00 | 0.00 | 83 | 1009.6 |
| 20260504041539 | 37 | 314 | 0.0 | 1.0 | 0.00 | 0.00 | 0.00 | 83 | 1009.3 |
| 20260504040049 | 37 | 313 | 0.0 | 1.0 | 0.00 | 0.00 | 0.00 | 83 | 1009.4 |
| 20260504034550 | 36 | 284 | 0.0 | 1.0 | 0.00 | 0.00 | 0.00 | 84 | 1009.4 |
| 20260504033037 | 36 | 284 | 0.0 | 0.0 | 0.00 | 0.00 | 0.00 | 83 | 1009.4 |
| 20260504031536 | 35 | 284 | 0.0 | 0.0 | 0.00 | 0.00 | 0.00 | 83 | 1009.5 |
| 20260504030039 | 35 | 284 | 0.0 | 0.0 | 0.00 | 0.00 | 0.00 | 82 | 1009.4 |
| 20260504024536 | 35 | 284 | 0.0 | 1.0 | 0.00 | 0.00 | 0.00 | 81 | 1009.4 |
| 20260504023035 | 35 | 284 | 0.0 | 0.0 | 0.00 | 0.00 | 0.00 | 78 | 1009.5 |
| 20260504021534 | 36 | 284 | 0.0 | 1.0 | 0.00 | 0.00 | 0.00 | 76 | 1009.5 |
| 20260504020035 | 37 | 284 | 0.0 | 0.0 | 0.00 | 0.00 | 0.00 | 74 | 1009.6 |
| 20260504014535 | 37 | 284 | 0.0 | 0.0 | 0.00 | 0.00 | 0.00 | 72 | 1009.6 |
| 20260504013045 | 39 | 284 | 0.0 | 1.0 | 0.00 | 0.00 | 0.00 | 70 | 1009.5 |
| 20260504011533 | 40 | 284 | 0.0 | 1.0 | 0.00 | 0.00 | 0.00 | 68 | 1009.4 |
| 20260504010032 | 41 | 284 | 0.0 | 0.0 | 0.00 | 0.00 | 0.00 | 64 | 1009.1 |
| 20260504004532 | 43 | 284 | 0.0 | 0.0 | 0.00 | 0.00 | 0.00 | 61 | 1008.8 |
| 20260504003033 | 45 | 284 | 0.0 | 0.0 | 0.00 | 0.00 | 0.00 | 56 | 1008.7 |
| 20260504001531 | 46 | 284 | 0.0 | 0.0 | 0.00 | 0.00 | 0.00 | 54 | 1008.5 |
| 20260504000031 | 47 | 284 | 0.0 | 0.0 | 0.00 | 0.00 | 0.00 | 49 | 1008.3 |
| 20260503234531 | 49 | 284 | 0.0 | 1.0 | 0.00 | 0.00 | 0.00 | 46 | 1008.1 |
| 20260503233036 | 49 | 272 | 0.0 | 4.0 | 0.00 | 0.00 | 0.00 | 44 | 1008.0 |
| 20260503231529 | 50 | 229 | 0.0 | 4.0 | 0.00 | 0.00 | 0.00 | 42 | 1007.9 |
| 20260503230029 | 50 | 244 | 0.0 | 7.0 | 0.00 | 0.00 | 0.00 | 43 | 1007.8 |
| 20260503224528 | 50 | 164 | 0.0 | 6.0 | 0.00 | 0.00 | 0.00 | 44 | 1007.8 |
| 20260503223028 | 50 | 217 | 2.0 | 8.0 | 0.00 | 0.00 | 0.00 | 43 | 1007.9 |
| 20260503221527 | 50 | 257 | 1.0 | 6.0 | 0.00 | 0.00 | 0.00 | 45 | 1007.9 |
| 20260503220027 | 50 | 305 | 1.0 | 6.0 | 0.00 | 0.00 | 0.00 | 45 | 1008.0 |
| 20260503214525 | 50 | 258 | 0.0 | 6.0 | 0.00 | 0.00 | 0.00 | 45 | 1007.8 |
| 20260503213025 | 50 | 283 | 0.0 | 4.0 | 0.00 | 0.00 | 0.00 | 47 | 1007.9 |
| 20260503211532 | 50 | 284 | 1.0 | 4.0 | 0.00 | 0.00 | 0.00 | 46 | 1007.9 |
| 20260503210024 | 50 | 182 | 0.0 | 6.0 | 0.00 | 0.00 | 0.00 | 48 | 1007.9 |
| 20260503204522 | 50 | 180 | 2.0 | 5.0 | 0.00 | 0.00 | 0.00 | 46 | 1007.9 |
| 20260503203022 | 50 | 201 | 0.0 | 5.0 | 0.00 | 0.00 | 0.00 | 46 | 1008.0 |
| 20260503201520 | 50 | 185 | 0.0 | 6.0 | 0.00 | 0.00 | 0.00 | 46 | 1008.1 |
| 20260503200020 | 50 | 178 | 1.0 | 8.0 | 0.00 | 0.00 | 0.00 | 48 | 1008.2 |
| 20260503194518 | 48 | 229 | 1.0 | 5.0 | 0.00 | 0.00 | 0.00 | 48 | 1008.3 |
| 20260503193015 | 49 | 244 | 1.0 | 8.0 | 0.00 | 0.00 | 0.00 | 49 | 1008.5 |
| 20260503191514 | 49 | 313 | 1.0 | 6.0 | 0.00 | 0.00 | 0.00 | 48 | 1008.6 |